Temp
-14 -13 -13 -13 -13 -13 -13 -13 -12 -13 -13 -13 -13 -12 -12 -12 -12 -12 -12 -12 -12 -12 -12 -12 -12 -12 -12 -12 -12 -12 -12 -12 -12 -12 -12 -12 -12 -12 -12 -12 -12 -12 -12 -12 -12 -12 -13 -13 -13 -13 -13 -12 -12 -12 -13 -13 -13 -13 -13 -14 -14 -14
-14 -14 -14 -13 -13 -13 -13 -13 -13 -13 -13 -13 -13 -12 -13 -13 -13 -12 -12 -12 -13 -13 -13 -13 -13 -12 -12 -12 -12 -12 -12 -12 -12 -12 -12 -12 -12 -12 -12 -12 -12 -12 -12 -13 -12 -12 -13 -13 -13 -13 -13 -13 -12 -12 -13 -13 -13 -13 -13 -14 -14 -14
-14 -14 -14 -13 -13 -14 -13 -13 -13 -13 -13 -13 -12 -13 -13 -13 -13 -13 -12 -13 -13 -13 -13 -13 -13 -12 -12 -12 -12 -12 -12 -12 -12 -12 -13 -13 -12 -12 -12 -12 -12 -12 -12 -13 -13 -13 -13 -13 -13 -13 -13 -13 -13 -13 -13 -13 -13 -13 -13 -14 -14 -14
-14 -14 -14 -14 -14 -13 -13 -13 -13 -13 -13 -12 -13 -13 -13 -13 -13 -13 -13 -13 -13 -13 -13 -13 -13 -13 -13 -13 -13 -12 -13 -13 -13 -13 -13 -13 -13 -13 -13 -12 -12 -12 -12 -13 -13 -13 -13 -13 -13 -13 -13 -13 -13 -13 -13 -13 -13 -13 -13 -13 -14 -14
-14 -14 -14 -14 -14 -13 -13 -13 -13 -13 -13 -13 -13 -13 -13 -13 -13 -13 -13 -13 -13 -13 -13 -13 -13 -13 -13 -13 -13 -13 -13 -13 -13 -13 -13 -13 -13 -13 -13 -13 -12 -12 -12 -13 -13 -13 -13 -13 -13 -13 -13 -13 -13 -13 -13 -13 -13 -13 -13 -14 -14 -14
-14 -14 -14 -14 -14 -13 -13 -13 -14 -14 -13 -13 -13 -13 -13 -13 -13 -13 -13 -13 -13 -13 -13 -13 -13 -13 -13 -14 -14 -13 -13 -14 -14 -14 -14 -14 -14 -14 -13 -13 -13 -13 -13 -13 -13 -13 -13 -14 -14 -13 -13 -13 -13 -13 -13 -13 -13 -13 -13 -14 -14 -14
-14 -14 -14 -14 -14 -13 -13 -14 -14 -14 -14 -14 -13 -13 -13 -13 -13 -13 -13 -13 -13 -13 -14 -14 -13 -13 -13 -14 -14 -14 -14 -14 -14 -14 -14 -14 -14 -14 -14 -14 -13 -13 -13 -13 -13 -13 -14 -14 -14 -14 -14 -13 -13 -13 -13 -13 -13 -13 -14 -14 -14 -14
-14 -14 -15 -15 -14 -13 -14 -14 -15 -14 -14 -14 -14 -13 -13 -13 -13 -13 -13 -14 -14 -14 -14 -14 -14 -14 -14 -14 -14 -14 -14 -14 -14 -14 -14 -14 -14 -14 -14 -14 -14 -14 -14 -14 -14 -14 -14 -14 -14 -14 -14 -14 -14 -13 -13 -13 -13 -13 -14 -14 -14 -14
-15 -15 -15 -15 -14 -14 -14 -15 -14 -15 -14 -14 -14 -13 -13 -13 -14 -14 -13 -14 -14 -14 -14 -14 -14 -14 -14 -14 -14 -14 -14 -14 -14 -14 -14 -14 -14 -14 -14 -14 -14 -14 -14 -14 -14 -14 -14 -14 -14 -14 -14 -14 -14 -14 -14 -14 -14 -13 -14 -14 -14 -14
-15 -15 -15 -15 -15 -14 -14 -14 -14 -14 -14 -14 -14 -14 -14 -14 -14 -14 -13 -14 -14 -14 -14 -14 -14 -14 -14 -14 -14 -14 -14 -14 -14 -14 -14 -14 -14 -14 -14 -14 -14 -14 -14 -14 -14 -14 -14 -14 -14 -14 -14 -14 -14 -14 -14 -14 -14 -14 -14 -14 -14 -14
-15 -15 -15 -15 -15 -15 -14 -14 -14 -14 -14 -14 -14 -14 -14 -14 -14 -14 -14 -14 -14 -14 -14 -14 -14 -14 -14 -14 -14 -14 -14 -14 -14 -15 -14 -14 -14 -14 -14 -14 -14 -14 -14 -14 -14 -14 -14 -14 -14 -14 -14 -14 -14 -14 -14 -14 -14 -14 -14 -14 -14 -14
-15 -15 -15 -15 -15 -15 -14 -14 -14 -14 -14 -14 -14 -14 -14 -14 -14 -14 -14 -14 -14 -14 -14 -14 -14 -14 -14 -14 -14 -14 -14 -14 -15 -15 -15 -14 -14 -14 -14 -14 -14 -14 -14 -14 -14 -14 -14 -14 -14 -14 -14 -14 -14 -14 -14 -14 -14 -14 -14 -14 -14 -15
-15 -15 -15 -15 -15 -14 -14 -14 -14 -14 -14 -14 -14 -14 -14 -14 -14 -14 -14 -14 -14 -14 -14 -14 -14 -14 -14 -14 -15 -15 -15 -15 -15 -15 -15 -14 -14 -14 -14 -14 -14 -14 -14 -14 -14 -14 -14 -14 -14 -14 -14 -14 -14 -14 -14 -14 -14 -14 -14 -14 -14 -15
-15 -15 -15 -15 -15 -15 -14 -14 -14 -14 -14 -14 -14 -14 -14 -14 -14 -14 -14 -13 -14 -14 -14 -14 -15 -15 -15 -15 -15 -15 -15 -15 -15 -15 -15 -14 -14 -14 -14 -14 -14 -14 -14 -14 -14 -14 -14 -14 -14 -14 -14 -14 -14 -14 -14 -14 -14 -14 -14 -14 -14 -15
-15 -15 -15 -15 -15 -15 -15 -15 -15 -15 -14 -14 -14 -14 -14 -14 -13 -13 -13 -13 -13 -14 -14 -14 -15 -15 -15 -15 -15 -15 -15 -15 -15 -15 -14 -14 -14 -14 -14 -14 -14 -14 -14 -14 -14 -14 -14 -14 -14 -14 -14 -14 -14 -14 -14 -14 -14 -14 -14 -14 -14 -14
-15 -15 -15 -15 -15 -15 -15 -15 -15 -15 -15 -14 -14 -14 -14 -14 -13 -13 -13 -13 -13 -14 -14 -14 -14 -14 -15 -15 -15 -15 -15 -15 -15 -14 -14 -14 -14 -14 -14 -14 -14 -14 -14 -14 -14 -14 -14 -14 -14 -14 -14 -14 -14 -14 -14 -14 -14 -14 -14 -14 -14 -14
-15 -15 -15 -15 -15 -15 -15 -15 -15 -15 -14 -14 -14 -14 -13 -13 -13 -14 -13 -13 -13 -14 -14 -14 -14 -14 -15 -15 -15 -15 -15 -15 -15 -14 -14 -14 -14 -14 -14 -14 -14 -14 -14 -14 -14 -14 -14 -14 -14 -14 -14 -14 -14 -14 -14 -14 -14 -14 -14 -14 -14 -14
-15 -15 -15 -15 -15 -15 -15 -15 -14 -14 -14 -14 -14 -14 -13 -13 -13 -14 -14 -14 -14 -14 -14 -14 -14 -14 -14 -15 -15 -15 -15 -15 -15 -14 -14 -14 -14 -14 -14 -14 -14 -14 -14 -14 -14 -14 -14 -14 -14 -14 -14 -14 -14 -14 -14 -14 -14 -14 -14 -14 -14 -14
-15 -15 -15 -15 -15 -15 -15 -14 -14 -14 -14 -14 -14 -14 -14 -13 -13 -14 -14 -14 -14 -14 -14 -14 -14 -14 -14 -15 -15 -14 -14 -14 -15 -14 -14 -14 -14 -14 -14 -14 -14 -14 -14 -14 -14 -14 -14 -14 -14 -14 -14 -14 -14 -14 -14 -14 -14 -14 -14 -14 -14 -14
-15 -15 -15 -16 -16 -15 -15 -15 -14 -14 -14 -14 -14 -14 -14 -13 -13 -14 -14 -14 -14 -14 -14 -14 -14 -14 -14 -14 -15 -15 -14 -14 -14 -14 -14 -14 -14 -14 -14 -14 -14 -14 -13 -13 -14 -14 -14 -14 -14 -14 -14 -14 -14 -14 -14 -14 -14 -14 -14 -14 -14 -14
-15 -15 -16 -16 -16 -15 -15 -15 -15 -14 -14 -14 -14 -14 -14 -14 -13 -13 -14 -14 -14 -14 -14 -14 -14 -14 -14 -14 -15 -15 -15 -15 -15 -14 -14 -14 -14 -14 -14 -14 -14 -14 -13 -13 -13 -14 -14 -14 -14 -14 -14 -14 -14 -14 -14 -14 -14 -14 -14 -14 -14 -14
-15 -15 -15 -15 -16 -16 -15 -15 -15 -15 -14 -15 -15 -14 -14 -14 -14 -14 -14 -14 -14 -14 -14 -14 -14 -14 -14 -14 -15 -15 -15 -15 -15 -15 -14 -14 -14 -14 -14 -14 -14 -14 -14 -13 -13 -14 -14 -14 -14 -14 -14 -14 -14 -14 -14 -14 -14 -15 -15 -15 -14 -14
-15 -15 -15 -15 -16 -16 -16 -15 -15 -15 -15 -15 -15 -14 -14 -14 -14 -14 -14 -14 -14 -14 -14 -14 -14 -14 -15 -15 -15 -15 -15 -15 -15 -15 -14 -14 -14 -14 -14 -14 -14 -14 -14 -13 -13 -13 -14 -14 -14 -14 -14 -14 -14 -14 -14 -14 -14 -15 -15 -15 -15 -14
-15 -15 -15 -15 -16 -16 -16 -15 -15 -15 -15 -15 -15 -15 -14 -14 -14 -14 -14 -14 -14 -14 -14 -14 -14 -14 -14 -15 -15 -15 -15 -15 -15 -14 -14 -14 -14 -14 -14 -14 -14 -14 -14 -14 -13 -13 -14 -14 -14 -14 -14 -14 -14 -14 -14 -14 -14 -14 -14 -14 -14 -14
-15 -15 -15 -15 -15 -16 -16 -15 -15 -15 -15 -15 -15 -15 -15 -15 -14 -14 -14 -14 -14 -14 -14 -14 -14 -14 -14 -14 -14 -14 -14 -14 -14 -14 -14 -14 -14 -14 -14 -14 -14 -14 -14 -14 -13 -13 -14 -14 -14 -14 -14 -14 -14 -14 -14 -14 -14 -14 -14 -14 -14 -14
-15 -15 -15 -15 -15 -16 -16 -15 -15 -15 -15 -15 -15 -15 -15 -15 -15 -14 -14 -14 -14 -14 -14 -14 -14 -14 -14 -14 -14 -14 -14 -14 -14 -14 -14 -14 -14 -14 -14 -14 -14 -14 -14 -14 -14 -14 -14 -14 -14 -14 -14 -14 -14 -14 -14 -14 -14 -14 -14 -14 -14 -14
-15 -15 -15 -15 -15 -15 -16 -16 -15 -15 -15 -15 -15 -15 -15 -15 -15 -15 -15 -14 -14 -15 -15 -15 -15 -15 -15 -15 -15 -15 -15 -15 -14 -14 -14 -14 -14 -14 -14 -14 -14 -14 -14 -14 -14 -14 -14 -14 -14 -14 -14 -14 -14 -14 -14 -14 -14 -14 -14 -14 -14 -14
-16 -16 -15 -15 -15 -15 -16 -16 -15 -15 -15 -15 -15 -15 -15 -15 -15 -15 -15 -15 -15 -15 -15 -15 -15 -15 -15 -15 -15 -15 -15 -15 -15 -15 -15 -15 -15 -15 -14 -14 -14 -14 -14 -14 -14 -14 -14 -14 -14 -14 -14 -14 -14 -14 -14 -14 -14 -14 -14 -14 -14 -14
-16 -16 -15 -15 -15 -15 -15 -16 -15 -15 -16 -16 -15 -15 -15 -15 -15 -16 -15 -15 -15 -15 -15 -15 -15 -15 -15 -15 -15 -15 -15 -15 -15 -15 -15 -15 -15 -15 -14 -14 -14 -14 -14 -14 -14 -14 -14 -14 -14 -14 -14 -14 -14 -14 -14 -14 -14 -14 -14 -14 -14 -14
-16 -16 -15 -15 -15 -15 -15 -15 -16 -16 -16 -16 -16 -16 -16 -16 -16 -16 -16 -15 -15 -15 -15 -15 -15 -15 -15 -15 -15 -15 -15 -15 -15 -15 -15 -15 -15 -15 -15 -14 -14 -14 -14 -14 -14 -14 -14 -14 -14 -14 -14 -14 -14 -14 -14 -14 -14 -14 -14 -14 -14 -14
-16 -16 -15 -15 -15 -15 -15 -16 -16 -16 -16 -16 -16 -16 -16 -16 -16 -16 -16 -16 -15 -15 -15 -15 -15 -15 -15 -15 -15 -15 -15 -15 -15 -15 -15 -15 -15 -15 -15 -15 -15 -15 -15 -15 -14 -14 -14 -14 -14 -14 -14 -14 -15 -15 -14 -14 -14 -14 -14 -14 -14 -14
-16 -16 -16 -16 -16 -16 -16 -16 -16 -16 -16 -17 -17 -17 -16 -16 -16 -16 -16 -16 -16 -16 -16 -16 -16 -16 -16 -16 -16 -16 -16 -15 -15 -15 -15 -15 -15 -15 -15 -15 -15 -15 -15 -15 -15 -15 -15 -15 -15 -15 -15 -15 -15 -15 -15 -15 -14 -14 -14 -14 -14 -14
-17 -16 -16 -16 -17 -16 -16 -16 -16 -16 -16 -17 -17 -17 -17 -16 -16 -16 -17 -17 -16 -16 -16 -16 -16 -16 -16 -16 -16 -16 -16 -16 -16 -16 -16 -15 -15 -15 -15 -15 -15 -15 -15 -15 -15 -15 -15 -15 -15 -15 -15 -15 -15 -15 -15 -15 -15 -15 -15 -15 -14 -14
-16 -16 -16 -16 -16 -16 -16 -16 -17 -16 -16 -17 -17 -17 -17 -17 -16 -17 -17 -17 -17 -16 -16 -17 -17 -17 -17 -17 -17 -17 -16 -16 -16 -16 -16 -16 -16 -16 -16 -15 -15 -15 -15 -15 -15 -15 -15 -15 -15 -15 -15 -16 -16 -15 -15 -15 -15 -15 -15 -15 -15 -15
-16 -16 -16 -16 -16 -16 -16 -16 -16 -17 -17 -17 -17 -18 -17 -17 -17 -17 -17 -17 -17 -17 -17 -17 -17 -17 -17 -17 -17 -17 -17 -17 -17 -16 -16 -16 -16 -16 -16 -16 -16 -16 -16 -15 -15 -15 -15 -15 -16 -16 -16 -16 -16 -16 -16 -16 -16 -16 -15 -15 -15 -15
-16 -16 -16 -16 -16 -16 -16 -16 -17 -17 -17 -17 -17 -18 -18 -18 -17 -17 -17 -17 -17 -17 -17 -17 -17 -17 -17 -17 -17 -17 -17 -17 -17 -17 -17 -17 -16 -16 -16 -16 -16 -16 -16 -16 -16 -16 -16 -16 -16 -16 -16 -16 -16 -16 -16 -16 -16 -16 -16 -16 -16 -16
-16 -16 -16 -16 -16 -16 -16 -16 -17 -17 -17 -17 -17 -18 -18 -18 -18 -17 -17 -17 -17 -17 -17 -17 -17 -17 -17 -17 -17 -17 -17 -17 -17 -17 -17 -17 -17 -17 -17 -17 -17 -16 -16 -16 -16 -16 -16 -16 -16 -16 -16 -16 -16 -16 -16 -16 -16 -16 -16 -16 -16 -16
Height
5823 5823 5824 5824 5823 5822 5822 5821 5819 5818 5819 5819 5819 5817 5815 5815 5816 5816 5815 5814 5812 5810 5810 5810 5810 5810 5810 5809 5810 5811 5811 5812 5814 5816 5817 5818 5818 5818 5818 5819 5819 5819 5820 5820 5821 5821 5822 5822 5823 5824 5825 5827 5829 5832 5833 5833 5834 5834 5834 5835 5835 5835
5819 5820 5821 5821 5821 5819 5818 5818 5817 5817 5816 5816 5814 5813 5812 5812 5814 5814 5814 5811 5809 5808 5807 5807 5808 5807 5807 5806 5808 5808 5808 5809 5810 5812 5815 5816 5816 5816 5816 5817 5817 5818 5818 5819 5819 5820 5820 5821 5822 5822 5823 5825 5828 5830 5831 5832 5833 5833 5833 5833 5833 5834
5817 5818 5818 5818 5818 5816 5815 5815 5813 5813 5812 5812 5811 5810 5810 5810 5811 5811 5810 5808 5807 5807 5805 5806 5806 5805 5805 5805 5806 5807 5805 5805 5807 5809 5812 5814 5815 5815 5815 5815 5816 5816 5817 5817 5818 5819 5819 5819 5820 5820 5821 5823 5826 5828 5829 5830 5831 5831 5832 5832 5832 5832
5815 5815 5814 5814 5814 5813 5812 5811 5810 5809 5809 5810 5808 5807 5808 5808 5808 5808 5808 5806 5806 5805 5804 5805 5805 5803 5803 5803 5803 5803 5802 5803 5805 5807 5808 5811 5813 5813 5813 5814 5814 5815 5815 5816 5816 5817 5817 5818 5818 5818 5819 5821 5824 5825 5827 5828 5828 5829 5830 5831 5831 5831
5812 5811 5811 5811 5811 5810 5809 5808 5807 5807 5808 5807 5806 5805 5806 5806 5806 5806 5806 5805 5804 5804 5804 5803 5802 5801 5800 5799 5800 5800 5800 5802 5804 5805 5806 5807 5810 5811 5812 5812 5813 5813 5814 5814 5814 5814 5815 5816 5816 5816 5817 5819 5821 5823 5825 5826 5826 5827 5828 5829 5829 5829
5809 5808 5808 5808 5808 5807 5806 5804 5804 5805 5805 5804 5803 5804 5805 5805 5805 5804 5804 5804 5803 5802 5801 5800 5799 5800 5797 5795 5796 5798 5799 5801 5802 5803 5804 5805 5807 5809 5810 5811 5811 5811 5812 5812 5812 5812 5813 5813 5814 5815 5815 5817 5819 5822 5823 5823 5823 5825 5826 5827 5827 5828
5806 5804 5805 5806 5805 5804 5803 5802 5802 5803 5803 5801 5801 5803 5804 5805 5804 5802 5801 5801 5800 5800 5800 5798 5798 5798 5796 5794 5793 5795 5798 5800 5800 5802 5803 5804 5805 5807 5808 5809 5809 5809 5809 5810 5810 5810 5811 5811 5812 5813 5814 5815 5817 5819 5820 5821 5821 5822 5823 5824 5825 5825
5803 5804 5805 5805 5803 5802 5800 5800 5801 5801 5800 5800 5800 5801 5802 5803 5801 5799 5799 5799 5798 5798 5799 5798 5797 5796 5795 5793 5792 5793 5796 5798 5799 5801 5801 5802 5803 5804 5805 5806 5807 5807 5807 5807 5808 5808 5809 5809 5810 5811 5812 5813 5815 5817 5818 5818 5819 5820 5821 5822 5822 5823
5804 5804 5804 5803 5803 5802 5799 5798 5798 5797 5797 5798 5798 5799 5799 5800 5798 5796 5797 5797 5797 5797 5797 5796 5796 5795 5793 5792 5792 5793 5795 5797 5798 5800 5800 5801 5801 5802 5802 5803 5803 5803 5804 5804 5805 5806 5806 5807 5808 5808 5809 5810 5812 5814 5815 5816 5817 5818 5818 5819 5820 5820
5803 5802 5801 5801 5800 5800 5798 5796 5796 5795 5795 5794 5794 5796 5796 5797 5796 5794 5795 5795 5794 5794 5794 5794 5793 5793 5792 5791 5792 5793 5795 5796 5797 5798 5799 5799 5800 5800 5801 5801 5801 5801 5802 5802 5803 5803 5804 5805 5805 5805 5806 5807 5809 5810 5811 5813 5814 5815 5816 5817 5817 5818
5800 5799 5799 5798 5796 5796 5796 5795 5795 5794 5793 5791 5792 5793 5794 5795 5793 5791 5792 5792 5791 5791 5791 5791 5791 5791 5790 5789 5790 5792 5793 5794 5795 5796 5797 5798 5799 5800 5800 5800 5800 5800 5800 5800 5801 5801 5802 5803 5803 5803 5803 5804 5805 5807 5808 5810 5811 5812 5813 5814 5815 5816
5798 5797 5797 5797 5795 5795 5795 5794 5794 5792 5791 5791 5791 5792 5793 5793 5791 5789 5788 5789 5788 5788 5788 5789 5789 5789 5789 5789 5789 5791 5792 5793 5793 5795 5796 5797 5798 5798 5799 5798 5798 5798 5798 5798 5798 5799 5800 5800 5801 5801 5801 5801 5802 5804 5805 5806 5808 5809 5810 5811 5812 5813
5795 5796 5796 5796 5795 5794 5793 5793 5792 5791 5790 5790 5789 5789 5790 5791 5789 5786 5786 5787 5786 5785 5786 5787 5787 5787 5788 5789 5790 5791 5792 5792 5793 5794 5795 5796 5796 5797 5797 5797 5797 5796 5796 5796 5796 5796 5796 5797 5798 5798 5799 5799 5799 5800 5802 5803 5805 5806 5806 5807 5808 5809
5793 5793 5793 5793 5792 5791 5790 5790 5789 5789 5788 5788 5787 5787 5787 5787 5786 5785 5785 5786 5785 5785 5785 5785 5786 5786 5786 5788 5789 5790 5791 5792 5792 5793 5794 5795 5795 5795 5796 5796 5795 5795 5795 5795 5795 5794 5794 5794 5794 5795 5796 5797 5797 5797 5799 5801 5802 5803 5803 5804 5804 5806
5791 5790 5790 5789 5788 5787 5787 5786 5786 5786 5786 5786 5785 5785 5785 5784 5784 5784 5784 5784 5783 5784 5784 5783 5785 5785 5786 5787 5788 5789 5790 5791 5792 5793 5793 5793 5793 5793 5793 5794 5794 5794 5793 5793 5793 5792 5791 5791 5792 5793 5793 5794 5795 5795 5796 5798 5800 5801 5801 5801 5802 5802
5787 5787 5786 5785 5785 5785 5785 5784 5784 5784 5783 5783 5783 5783 5783 5782 5782 5781 5781 5781 5781 5782 5782 5782 5783 5784 5786 5787 5788 5788 5789 5790 5791 5791 5791 5791 5791 5791 5792 5792 5792 5792 5792 5791 5791 5790 5789 5789 5790 5790 5791 5792 5792 5792 5793 5795 5797 5798 5799 5799 5800 5800
5784 5784 5783 5783 5783 5783 5782 5782 5782 5782 5781 5780 5780 5780 5781 5781 5780 5779 5779 5779 5778 5779 5779 5780 5781 5782 5784 5785 5786 5788 5788 5789 5789 5789 5789 5789 5789 5789 5790 5790 5791 5790 5790 5789 5788 5788 5787 5787 5788 5788 5788 5788 5789 5790 5791 5792 5794 5796 5797 5797 5797 5798
5782 5782 5782 5782 5781 5781 5780 5780 5780 5780 5779 5778 5778 5778 5778 5779 5779 5778 5778 5778 5778 5778 5778 5779 5780 5781 5782 5782 5783 5785 5786 5786 5787 5787 5788 5788 5788 5788 5788 5789 5789 5788 5788 5787 5787 5786 5786 5786 5786 5786 5785 5785 5786 5788 5789 5790 5792 5793 5794 5795 5795 5795
5782 5781 5781 5781 5780 5780 5779 5779 5779 5779 5778 5777 5776 5776 5776 5776 5776 5776 5777 5777 5777 5777 5777 5777 5778 5779 5780 5780 5781 5782 5783 5784 5785 5785 5786 5786 5786 5787 5787 5787 5787 5787 5786 5785 5785 5784 5784 5784 5784 5784 5783 5783 5784 5786 5787 5788 5790 5791 5792 5792 5793 5793
5781 5780 5780 5780 5779 5779 5778 5778 5778 5777 5777 5776 5775 5774 5774 5774 5773 5773 5774 5775 5775 5775 5774 5774 5774 5776 5777 5778 5778 5779 5781 5782 5782 5783 5784 5784 5785 5785 5785 5785 5785 5785 5784 5783 5783 5783 5783 5783 5783 5782 5781 5782 5783 5784 5785 5786 5787 5788 5789 5790 5790 5791
5779 5779 5779 5779 5778 5778 5776 5776 5776 5776 5775 5774 5774 5773 5772 5772 5771 5771 5771 5772 5773 5772 5772 5771 5771 5772 5774 5775 5776 5777 5778 5779 5780 5781 5782 5783 5783 5783 5783 5783 5783 5783 5782 5781 5781 5781 5782 5782 5781 5781 5781 5781 5782 5783 5783 5784 5785 5786 5786 5787 5787 5788
5777 5777 5777 5777 5777 5777 5775 5774 5775 5774 5774 5773 5772 5772 5771 5770 5770 5769 5769 5770 5770 5771 5770 5770 5770 5770 5771 5773 5774 5775 5776 5777 5778 5779 5780 5780 5780 5781 5781 5781 5781 5780 5780 5779 5778 5779 5779 5780 5780 5780 5779 5780 5780 5781 5781 5782 5782 5783 5783 5784 5784 5784
5774 5775 5775 5775 5776 5775 5774 5773 5773 5772 5772 5771 5771 5770 5770 5769 5768 5768 5767 5768 5768 5769 5769 5768 5769 5769 5770 5771 5772 5773 5774 5774 5775 5776 5777 5777 5778 5778 5778 5778 5778 5778 5778 5777 5776 5777 5777 5778 5778 5778 5778 5778 5778 5779 5779 5780 5780 5780 5780 5780 5781 5781
5771 5772 5773 5773 5774 5774 5773 5772 5771 5770 5769 5769 5768 5768 5768 5768 5767 5767 5766 5766 5766 5767 5767 5767 5767 5767 5768 5768 5769 5770 5771 5772 5772 5773 5774 5774 5774 5775 5775 5775 5776 5776 5775 5775 5774 5775 5775 5776 5776 5776 5776 5777 5777 5777 5777 5777 5777 5777 5777 5777 5777 5777
5768 5769 5770 5771 5772 5772 5772 5771 5770 5769 5768 5767 5766 5766 5765 5766 5766 5766 5765 5765 5765 5765 5765 5765 5765 5765 5766 5766 5766 5767 5768 5769 5769 5770 5770 5771 5771 5772 5772 5772 5773 5773 5773 5773 5772 5772 5772 5773 5773 5774 5774 5774 5774 5774 5774 5774 5774 5774 5774 5774 5774 5774
5765 5767 5768 5768 5769 5770 5770 5770 5768 5767 5766 5765 5765 5764 5764 5764 5764 5764 5764 5764 5763 5763 5764 5764 5764 5764 5764 5764 5765 5765 5765 5766 5767 5767 5768 5768 5769 5769 5769 5769 5769 5770 5770 5770 5770 5770 5770 5770 5770 5771 5771 5771 5771 5771 5771 5771 5771 5771 5771 5771 5771 5771
5763 5764 5765 5766 5766 5767 5768 5768 5767 5766 5764 5763 5763 5763 5762 5762 5762 5762 5762 5762 5762 5762 5762 5762 5762 5762 5762 5763 5763 5763 5763 5764 5764 5764 5765 5765 5766 5766 5766 5766 5767 5767 5767 5767 5766 5766 5767 5767 5767 5767 5768 5768 5768 5768 5768 5768 5768 5768 5768 5767 5768 5768
5761 5762 5762 5763 5763 5764 5765 5765 5764 5764 5762 5761 5761 5760 5760 5760 5759 5760 5760 5760 5760 5760 5760 5760 5760 5760 5761 5761 5761 5761 5761 5761 5761 5762 5762 5762 5763 5763 5763 5763 5764 5764 5764 5764 5763 5763 5764 5763 5763 5764 5765 5765 5765 5765 5765 5765 5765 5765 5765 5764 5764 5765
5758 5759 5759 5760 5760 5760 5761 5761 5761 5761 5760 5759 5758 5758 5757 5757 5757 5757 5758 5758 5758 5758 5758 5758 5758 5758 5758 5759 5759 5759 5759 5759 5759 5759 5760 5760 5760 5760 5760 5760 5760 5761 5761 5761 5761 5761 5761 5761 5761 5761 5761 5762 5762 5762 5762 5763 5762 5762 5762 5761 5761 5762
5756 5756 5756 5756 5756 5757 5757 5758 5758 5759 5758 5757 5755 5755 5755 5755 5755 5755 5756 5756 5756 5756 5756 5756 5756 5756 5756 5756 5757 5757 5757 5757 5757 5757 5757 5757 5757 5757 5757 5757 5758 5758 5758 5758 5758 5758 5758 5758 5758 5758 5759 5759 5759 5759 5760 5760 5760 5759 5759 5759 5759 5759
5754 5754 5753 5753 5753 5753 5754 5754 5755 5756 5756 5755 5754 5753 5753 5754 5754 5754 5754 5754 5754 5754 5754 5754 5754 5754 5754 5754 5754 5755 5755 5755 5755 5755 5755 5755 5755 5755 5755 5755 5755 5755 5755 5755 5756 5756 5756 5755 5755 5756 5756 5756 5756 5757 5757 5757 5757 5756 5756 5756 5757 5757
5751 5751 5751 5750 5749 5749 5750 5751 5752 5753 5754 5754 5752 5752 5752 5752 5752 5752 5752 5752 5752 5751 5751 5752 5752 5752 5752 5752 5752 5752 5753 5753 5753 5753 5753 5753 5753 5753 5753 5753 5753 5753 5753 5753 5753 5753 5753 5753 5753 5753 5753 5754 5754 5754 5754 5754 5754 5754 5754 5754 5754 5754
5749 5749 5749 5748 5747 5746 5747 5748 5749 5750 5752 5752 5751 5750 5750 5750 5750 5749 5749 5750 5750 5749 5749 5750 5750 5750 5750 5750 5750 5751 5751 5751 5751 5751 5751 5751 5751 5751 5752 5752 5752 5751 5751 5751 5751 5751 5751 5751 5751 5751 5752 5752 5752 5752 5752 5752 5752 5752 5751 5751 5751 5751
5745 5746 5747 5746 5745 5744 5744 5746 5747 5748 5749 5750 5749 5749 5749 5748 5747 5747 5747 5748 5748 5748 5748 5748 5748 5748 5749 5749 5749 5749 5749 5749 5749 5749 5749 5749 5749 5750 5750 5750 5750 5750 5750 5750 5750 5750 5749 5749 5749 5749 5749 5749 5750 5750 5750 5750 5750 5750 5749 5749 5749 5749
5743 5744 5745 5744 5744 5743 5742 5743 5745 5746 5747 5748 5748 5747 5747 5746 5746 5745 5746 5747 5747 5747 5746 5746 5746 5747 5747 5747 5748 5748 5748 5748 5748 5748 5748 5748 5748 5748 5748 5748 5748 5748 5748 5748 5748 5748 5748 5748 5747 5747 5747 5747 5747 5747 5748 5748 5748 5748 5747 5747 5747 5747
5740 5742 5742 5741 5743 5743 5741 5742 5744 5745 5745 5746 5746 5746 5745 5745 5744 5744 5744 5745 5746 5745 5745 5745 5745 5745 5745 5746 5746 5746 5746 5746 5746 5746 5746 5746 5746 5746 5746 5747 5747 5747 5747 5747 5747 5747 5747 5746 5746 5746 5746 5746 5746 5746 5746 5746 5746 5746 5746 5746 5746 5746
5737 5738 5738 5738 5740 5740 5739 5741 5742 5742 5743 5743 5743 5744 5743 5743 5743 5742 5742 5743 5744 5744 5744 5744 5743 5743 5744 5744 5745 5745 5745 5745 5745 5745 5745 5745 5745 5745 5745 5745 5745 5745 5745 5745 5745 5745 5745 5745 5745 5745 5745 5744 5744 5744 5744 5744 5744 5744 5744 5744 5744 5744
Wind_Speed
22 23 23 24 26 29 30 31 30 26 24 23 23 25 25 22 20 21 22 23 25 27 27 26 25 24 25 24 22 21 20 21 22 23 22 22 22 22 21 20 19 19 19 19 19 19 19 20 20 20 21 21 21 21 22 23 22 22 23 26 29 30
24 24 24 25 25 26 26 27 27 26 25 24 26 28 26 24 22 22 24 25 25 25 25 24 25 25 25 24 22 22 21 22 23 24 24 23 23 22 21 20 20 19 19 18 18 19 20 20 20 20 21 20 20 22 23 23 23 23 23 25 29 31
25 25 25 25 23 22 22 23 24 24 24 23 25 26 25 25 23 21 23 26 27 28 28 26 26 26 25 22 20 21 22 21 23 24 24 24 24 23 22 21 20 20 19 18 18 19 19 20 20 21 21 21 20 21 23 23 24 24 24 25 27 31
23 24 24 23 23 22 22 22 22 23 24 23 25 26 25 26 26 23 23 26 27 29 30 29 28 26 23 21 21 22 22 21 22 25 25 24 24 24 23 22 22 21 20 19 18 18 19 20 21 21 22 21 21 21 23 24 25 25 24 25 27 30
22 23 23 23 22 22 22 23 24 25 25 25 26 26 25 26 27 28 27 27 26 25 28 30 29 25 22 22 23 22 20 19 21 24 25 25 24 23 23 23 23 22 21 19 18 18 19 20 21 22 23 23 22 21 22 24 25 26 26 25 26 28
21 21 22 21 22 22 23 24 24 25 25 27 27 26 26 25 26 29 28 26 25 24 24 26 27 25 22 21 21 21 19 18 20 22 23 24 24 22 23 23 23 22 22 20 19 19 19 20 21 22 22 22 21 21 22 24 26 27 27 27 27 28
21 20 17 15 18 20 21 22 22 24 25 26 25 25 26 25 26 27 25 23 24 24 21 21 23 23 22 22 21 19 17 16 18 19 20 21 21 21 21 21 21 22 21 20 19 19 19 20 21 22 22 21 20 20 23 25 26 27 28 28 29 29
19 16 13 12 16 18 19 20 19 21 24 24 23 24 24 24 24 23 22 21 22 22 19 19 20 20 21 22 20 16 15 14 15 16 17 19 19 20 20 20 20 21 21 20 20 20 21 21 22 22 22 21 20 21 23 25 26 27 29 30 31 32
16 13 12 12 14 17 19 20 19 20 22 21 21 22 22 22 23 23 21 20 20 19 19 19 19 20 20 20 19 17 15 14 14 16 17 18 19 20 21 21 21 21 22 22 22 22 23 23 23 23 22 22 22 21 22 24 25 27 29 31 32 34
19 16 14 13 13 14 17 21 23 23 21 21 22 22 22 22 22 23 22 19 18 18 18 17 18 20 20 19 18 17 16 17 17 17 17 17 17 18 20 21 21 22 22 22 22 23 24 23 23 23 23 23 22 22 21 22 23 26 28 31 33 34
17 15 13 13 15 15 17 20 23 24 23 23 22 21 21 20 20 22 22 19 18 19 18 16 16 17 17 16 15 14 15 14 10 7 9 12 14 16 18 20 20 20 20 21 21 22 23 23 23 23 24 24 23 23 24 23 23 24 25 28 32 34
15 15 14 14 16 17 17 17 20 22 22 22 21 20 19 18 18 19 20 20 20 20 18 17 16 14 13 13 12 10 10 9 6 4 6 7 10 12 15 19 20 21 21 20 19 19 19 21 22 24 25 25 25 25 25 25 25 25 24 25 28 32
16 15 14 14 15 16 16 16 18 19 20 20 20 19 17 16 16 16 17 18 19 18 16 16 15 15 15 14 13 11 9 10 11 11 8 6 6 7 9 13 17 20 22 21 19 18 17 19 21 23 24 25 27 27 26 26 25 25 25 24 25 28
16 15 15 14 14 15 15 16 16 17 18 18 18 18 17 16 16 17 17 17 18 18 17 14 12 12 13 13 13 13 11 11 12 11 9 7 5 6 7 9 10 14 17 19 19 19 19 19 21 23 24 26 27 28 27 26 25 25 24 24 24 26
16 15 16 15 15 15 16 16 16 17 17 17 17 17 17 17 17 18 17 18 19 18 17 14 11 9 8 8 9 10 10 11 11 10 9 8 7 7 7 7 7 8 11 14 16 17 19 20 21 23 24 26 27 28 28 26 25 25 24 23 23 25
16 16 16 16 15 15 15 15 16 17 17 18 18 18 17 17 17 18 17 17 18 16 15 16 16 14 8 7 7 8 10 10 10 9 8 8 7 7 7 7 6 5 7 10 12 14 16 18 20 22 24 25 26 26 27 26 24 23 23 22 21 23
16 15 15 15 15 16 16 16 16 17 18 18 18 18 18 17 17 17 17 17 17 15 15 16 17 16 11 7 8 9 10 10 9 9 8 8 8 7 7 7 5 3 4 6 9 12 13 15 18 21 23 24 23 22 22 22 21 21 21 21 20 21
15 14 14 15 15 16 17 17 17 17 18 18 18 18 19 18 17 17 17 16 15 14 15 15 14 13 11 8 8 10 11 10 10 9 8 8 8 9 8 8 6 4 4 5 7 9 11 13 16 18 20 21 20 20 20 20 19 19 19 20 20 20
13 14 13 14 15 17 18 18 18 18 18 18 18 18 18 18 18 18 16 15 15 13 13 13 12 10 9 8 8 9 11 11 11 10 9 9 10 10 10 8 7 6 5 6 7 8 10 12 12 13 14 15 16 16 17 18 18 17 17 18 19 19
13 13 12 13 15 17 19 18 18 18 18 17 17 17 17 18 19 19 17 16 15 14 15 14 12 10 8 8 9 10 11 11 12 11 11 11 11 12 11 10 9 7 7 7 7 9 10 10 8 8 7 9 11 12 12 14 15 15 15 16 17 18
13 12 11 13 15 16 18 18 17 18 17 16 16 16 17 17 18 19 18 16 14 13 14 14 13 12 11 10 10 11 12 12 12 13 13 13 13 13 13 12 10 9 9 10 10 10 10 10 8 6 6 7 10 11 12 13 15 16 16 16 16 18
13 12 12 12 13 15 17 17 17 17 17 17 16 16 16 16 17 18 18 16 14 12 11 12 13 13 12 11 12 12 13 13 14 14 15 14 14 14 14 14 13 11 11 12 12 11 11 12 12 9 9 10 12 13 14 15 17 17 18 18 18 19
13 13 13 12 12 14 17 17 15 15 17 17 17 16 16 16 16 17 17 17 15 12 11 11 12 12 12 12 13 13 14 14 15 16 16 15 15 15 15 15 14 13 12 13 14 13 13 13 14 14 12 13 14 16 17 17 18 19 19 19 20 20
12 12 12 10 10 12 15 15 13 13 15 15 16 15 15 15 16 16 16 16 15 13 12 11 11 12 12 13 13 14 14 15 15 16 16 17 17 16 16 15 15 15 14 15 15 16 15 14 14 15 14 14 16 17 18 19 20 21 21 21 21 22
12 12 12 10 9 11 13 14 13 12 13 13 14 14 14 15 15 16 15 15 15 14 12 11 11 11 11 12 13 13 14 15 15 16 16 17 17 16 16 16 16 17 16 17 17 18 17 16 15 15 15 16 17 18 19 19 20 21 21 22 23 23
15 14 13 12 10 10 12 14 13 12 13 13 13 13 13 14 14 15 16 15 15 14 13 12 11 11 11 11 12 12 13 14 15 16 16 16 17 16 16 16 17 18 17 18 19 19 19 18 17 17 16 17 18 19 20 20 20 20 21 22 23 23
17 16 15 16 15 13 12 13 13 14 17 16 14 13 13 13 12 13 15 15 15 14 13 13 12 12 11 11 12 12 13 14 15 15 16 16 16 16 16 16 17 17 18 18 19 19 19 19 18 18 18 19 20 20 20 20 21 20 21 21 21 21
15 15 16 17 18 17 13 12 13 17 20 19 17 15 14 13 12 12 14 16 15 14 13 13 12 12 12 12 12 13 13 14 15 15 15 15 15 15 15 16 16 17 18 18 19 19 20 20 20 19 20 20 21 21 20 20 21 21 21 20 20 20
15 16 17 18 18 19 19 18 18 20 20 20 19 17 16 15 13 14 15 17 16 14 13 13 12 12 12 12 12 12 13 14 14 14 14 14 14 14 15 15 15 16 17 18 19 20 20 21 21 21 21 21 21 22 20 20 21 22 21 20 20 20
18 18 20 20 20 20 21 23 24 22 19 19 20 18 17 16 14 14 16 17 16 14 13 12 12 11 11 11 12 12 13 13 13 13 13 13 13 13 14 14 15 16 17 17 18 19 20 22 22 22 22 22 21 21 21 20 21 22 21 20 20 21
21 22 23 25 25 23 22 23 23 21 17 18 20 19 18 17 14 13 15 16 16 14 12 12 11 11 10 11 11 11 11 11 11 12 12 12 12 12 12 13 14 14 15 16 17 18 19 20 21 21 21 21 20 20 20 20 20 21 20 19 19 20
23 24 26 26 26 26 24 22 22 21 18 17 19 19 18 17 14 12 13 15 16 14 12 11 10 9 9 9 10 10 10 10 10 10 10 10 10 10 10 11 12 12 13 14 15 16 17 18 19 19 19 19 18 18 18 19 19 19 19 18 19 19
24 26 26 26 27 29 27 23 22 21 17 15 17 19 17 16 14 11 12 13 15 14 12 10 9 8 8 9 9 9 9 9 9 9 9 8 8 8 9 9 10 11 12 13 14 15 15 16 17 17 17 16 16 16 16 16 16 16 17 17 18 18
26 27 26 27 28 29 27 23 21 20 17 14 16 18 16 14 13 11 11 13 14 14 11 8 7 7 8 9 9 9 9 9 9 9 8 8 7 7 7 8 9 9 10 11 12 13 14 14 14 15 14 14 13 13 12 11 11 12 12 13 15 15
25 24 25 28 29 29 27 23 20 18 16 15 16 18 16 14 13 13 12 13 14 13 11 7 6 7 8 8 9 9 9 9 9 8 8 8 7 7 7 8 8 9 9 10 11 12 13 13 13 13 12 12 11 10 10 9 8 8 9 9 10 11
24 21 22 25 26 29 31 25 18 15 16 17 18 18 16 15 14 15 14 13 13 13 11 8 6 7 7 8 9 9 9 9 8 8 8 8 8 8 8 8 8 9 9 10 11 12 12 13 13 13 12 11 11 10 9 8 8 7 7 7 7 8
25 24 23 23 25 30 34 30 22 16 16 18 19 17 15 15 15 15 15 14 13 12 12 10 9 8 8 8 9 10 10 10 10 10 10 10 10 9 9 9 9 9 10 10 11 12 12 13 13 13 13 12 11 11 10 9 9 8 8 7 7 7
Wind_Direction
244 251 258 264 271 274 273 275 277 277 279 278 276 276 274 272 270 273 278 278 279 279 278 278 278 279 280 278 273 270 269 266 264 258 250 242 239 239 237 236 236 237 238 237 233 231 232 231 230 231 233 233 231 228 229 231 229 228 227 228 231 233
250 256 262 270 275 274 272 274 277 278 280 280 277 275 273 273 275 274 272 276 281 281 281 280 279 278 277 276 272 268 264 260 257 254 250 244 241 239 238 237 237 238 239 238 237 234 233 232 232 233 235 235 234 231 232 234 232 229 227 227 229 232
257 262 267 270 268 268 273 274 274 275 276 276 274 273 273 272 273 270 268 274 277 276 279 281 281 280 279 280 276 268 261 256 253 251 248 246 245 242 240 240 240 241 241 238 237 237 236 236 234 234 234 235 236 234 234 236 235 231 230 228 228 231
262 264 263 262 259 265 274 274 272 274 275 274 272 270 270 269 266 269 275 279 280 278 278 279 279 280 283 281 277 270 261 256 256 254 248 244 247 248 246 246 245 244 242 238 236 237 237 237 236 236 235 234 233 234 234 236 237 234 232 232 231 231
262 260 257 256 259 267 273 276 275 274 274 273 271 270 272 272 271 276 279 278 279 282 279 275 273 278 282 276 270 266 261 261 260 257 250 243 244 250 251 250 248 246 243 237 233 234 235 235 237 237 237 235 231 231 234 235 238 237 233 233 234 234
258 256 253 255 259 264 268 273 272 270 271 270 268 270 272 275 277 279 279 277 277 279 281 274 269 272 272 267 263 258 259 264 259 257 255 248 244 248 251 250 249 247 243 237 232 231 232 234 237 239 240 240 235 232 233 233 236 238 235 233 235 237
253 250 250 254 257 259 265 270 268 268 270 268 268 271 271 273 278 281 282 282 277 275 280 280 270 264 261 262 263 256 258 261 257 257 257 250 244 245 247 247 247 247 244 240 235 233 234 236 239 241 242 244 241 235 232 232 234 237 237 235 235 237
247 247 248 253 255 254 264 273 274 278 277 272 275 279 277 278 281 284 284 280 276 276 281 285 275 264 261 259 258 260 261 260 260 263 261 251 244 243 244 243 244 244 243 241 238 237 238 239 241 241 240 243 244 241 238 235 235 237 237 236 235 235
242 238 241 249 255 252 264 277 285 296 291 283 286 288 286 287 286 284 282 278 279 283 284 284 279 275 270 255 253 260 258 261 268 271 271 261 249 246 245 242 240 239 239 239 239 239 239 240 242 241 239 241 245 248 247 241 239 240 240 238 236 235
240 240 247 259 268 265 273 281 288 296 297 296 297 293 290 292 288 282 282 280 280 285 289 285 282 283 275 259 256 259 258 265 271 271 273 267 254 248 247 244 240 237 237 239 241 241 240 240 241 241 240 241 244 248 249 245 243 245 244 243 241 237
246 259 270 276 283 286 287 285 286 290 294 298 296 292 292 292 287 285 285 283 281 285 288 284 285 289 277 265 263 266 269 263 259 276 284 272 256 251 254 253 247 240 239 241 244 243 241 241 241 241 242 244 245 245 247 246 245 246 245 245 244 241
259 275 282 281 283 287 288 283 282 284 288 291 290 290 291 288 285 288 288 288 284 278 279 281 285 284 270 266 265 264 270 256 255 308 308 287 264 259 262 259 253 248 246 246 246 246 247 248 247 246 246 248 248 246 246 247 246 246 245 243 244 244
264 274 280 280 278 280 282 281 279 279 280 284 288 290 290 285 282 282 287 291 286 278 279 278 273 269 263 264 260 251 262 275 293 309 305 294 276 273 271 261 255 250 250 249 250 255 259 260 258 254 250 250 250 249 246 245 245 246 245 244 241 242
267 276 280 282 285 291 291 286 283 280 280 282 286 290 290 287 282 279 283 286 285 287 288 274 260 262 262 262 256 249 262 282 300 313 307 299 295 295 288 273 262 254 252 252 253 257 259 260 261 258 252 249 251 252 249 244 243 244 244 243 241 239
269 280 284 288 295 301 298 290 286 285 285 285 285 287 289 288 286 286 285 281 285 293 289 275 273 272 256 258 257 243 250 269 286 300 304 305 306 305 300 291 281 271 263 257 255 254 254 257 260 260 255 250 252 255 252 244 240 241 243 243 241 239
276 287 288 290 296 297 295 289 284 282 282 282 282 283 285 286 288 289 289 285 288 292 289 289 293 293 285 274 268 247 240 250 265 280 297 306 306 303 303 302 298 287 272 265 262 260 260 261 262 263 259 255 255 257 252 242 236 238 241 243 243 242
282 288 287 291 298 298 294 290 283 279 277 278 279 280 281 282 286 288 290 290 290 290 290 294 294 296 301 288 270 260 249 248 257 267 283 295 300 300 300 304 310 301 278 273 271 270 270 268 266 265 261 256 255 255 247 238 236 236 236 238 243 247
281 282 284 291 298 297 293 289 284 278 274 274 275 276 277 279 281 284 288 291 292 291 288 288 287 288 290 280 267 263 258 259 264 269 277 283 287 288 291 301 309 311 301 288 281 279 274 269 269 269 262 254 252 251 243 237 239 240 237 237 241 248
272 272 279 288 293 292 288 286 283 280 276 274 274 277 278 280 280 282 286 290 291 290 285 280 277 277 274 267 262 261 261 261 264 270 277 280 280 280 283 288 295 304 301 290 283 280 274 267 271 277 265 248 244 245 238 234 238 242 242 242 243 247
261 264 272 281 286 287 285 284 283 282 280 277 277 279 281 282 282 285 287 289 291 291 290 285 280 279 275 264 257 257 257 258 262 267 272 275 275 276 278 279 284 291 291 287 281 275 269 262 270 292 279 241 231 235 233 230 237 245 250 250 248 249
255 260 268 274 280 282 282 283 283 283 284 285 286 286 287 285 283 285 287 288 290 289 290 289 287 287 284 274 265 262 261 261 262 264 267 270 269 270 273 277 280 283 285 284 279 273 266 259 261 282 283 253 237 239 241 241 245 252 256 256 254 252
256 262 267 272 279 279 277 281 283 284 287 290 291 289 288 287 283 283 284 286 288 285 284 282 280 280 278 273 267 264 262 261 260 261 263 264 264 265 267 271 275 277 280 279 275 270 264 258 253 254 260 259 254 251 251 251 251 253 256 257 257 255
265 268 266 269 281 280 275 278 282 284 285 286 287 287 284 282 281 280 281 282 282 281 278 277 276 273 268 264 261 258 257 257 257 259 261 261 262 262 262 264 267 270 272 273 274 270 262 257 254 255 257 257 259 258 257 256 255 255 256 256 256 255
269 271 267 270 289 287 275 276 281 282 284 285 286 288 285 279 276 275 277 278 278 277 274 273 273 271 267 264 262 261 260 259 259 260 261 261 261 261 260 259 260 262 263 265 269 268 264 259 255 257 257 254 255 256 258 258 256 256 255 254 251 251
271 273 269 272 297 295 280 279 286 287 286 287 286 288 287 282 275 271 268 270 271 272 270 269 268 268 268 267 266 266 264 264 263 263 263 263 264 264 263 261 259 259 258 257 260 261 262 259 253 251 250 249 251 253 256 257 256 256 255 252 249 248
275 274 267 268 281 292 287 281 287 300 299 295 290 288 285 280 273 270 266 263 263 264 264 265 265 264 265 266 268 269 269 269 269 269 270 269 269 268 267 265 263 261 260 258 257 259 260 260 255 251 249 249 250 252 253 254 256 257 257 256 253 251
280 276 270 271 272 278 289 283 286 306 310 305 298 291 287 281 276 275 272 265 261 261 261 261 263 264 264 265 268 270 271 273 274 274 275 275 273 271 269 266 263 262 262 261 259 260 261 261 257 253 251 250 250 251 251 253 256 258 259 259 258 256
281 277 275 280 276 270 271 272 288 307 310 307 303 299 297 294 292 289 283 274 264 261 262 261 261 261 262 263 264 267 270 271 273 274 275 275 274 271 269 265 263 261 261 260 258 258 258 258 256 253 252 251 252 253 253 253 256 258 258 258 258 256
274 271 275 285 287 274 259 259 281 299 304 304 304 306 308 305 301 297 290 281 269 262 262 261 261 261 261 263 263 265 267 269 270 272 273 274 273 271 269 267 265 261 259 257 256 255 255 255 255 254 252 252 253 255 256 255 255 257 257 257 257 254
273 273 278 288 293 286 272 270 281 289 293 302 306 308 308 306 302 298 291 283 272 264 264 264 262 264 265 266 267 267 268 270 271 272 273 275 275 274 271 269 266 264 261 258 255 253 253 255 256 255 255 254 254 255 256 254 254 257 258 257 257 256
275 276 281 289 292 291 285 283 286 285 288 299 303 304 303 299 296 292 286 281 273 264 262 264 264 266 270 273 275 276 276 277 278 278 278 278 278 277 274 270 267 265 263 261 257 254 253 255 256 257 257 258 257 256 256 255 255 257 258 258 257 258
273 275 280 284 287 287 285 285 286 285 289 296 298 300 299 291 287 286 284 281 276 267 260 264 268 272 278 282 284 286 285 285 284 284 283 281 279 276 273 270 267 265 263 262 260 258 257 257 258 260 261 261 261 260 259 258 258 258 259 257 256 256
267 272 276 275 276 280 280 282 285 285 285 288 293 300 297 287 282 282 283 282 277 270 263 264 273 280 288 292 293 294 293 291 288 287 285 281 277 272 269 267 265 264 262 261 261 260 260 259 260 261 262 263 263 263 263 262 261 261 261 259 258 258
268 272 274 269 269 273 274 277 282 283 279 278 289 300 300 292 284 279 277 277 274 269 264 267 278 289 297 300 300 297 293 289 286 283 281 277 273 268 266 266 266 267 267 265 263 262 261 259 259 259 259 260 260 259 261 263 263 263 262 260 260 261
273 276 277 270 264 260 259 266 279 281 276 276 288 299 304 301 289 282 277 274 272 268 263 267 282 294 300 302 300 295 287 280 275 273 271 270 269 267 265 265 266 269 270 269 267 265 262 260 258 257 256 256 255 255 257 260 262 262 263 263 263 264
275 277 276 269 261 254 251 258 278 287 282 282 286 292 299 300 290 283 279 275 273 270 263 260 268 281 290 296 299 296 288 279 270 265 262 260 262 265 267 268 268 270 270 270 270 268 265 262 259 257 254 252 251 250 251 255 258 259 260 262 263 265
270 270 271 268 265 258 249 249 263 281 285 280 276 275 280 286 284 279 277 274 271 269 267 264 263 269 280 292 300 299 293 287 282 277 272 266 262 260 260 262 265 268 269 269 270 271 271 269 266 262 260 257 254 252 250 250 251 251 251 252 254 255